Weather History for Alexandria, LA

Change the Weather History Date:

Monday, April 30, 2012

  Actual Average Record
Temperature  
Mean Temperature 79 °F 70 °F  
Max Temperature 88 °F 82 °F 93 °F (1952)
Min Temperature 69 °F 59 °F 43 °F (1965)
Degree Days  
Heating Degree Days 0 0  
Month to date heating degree days 17 67  
Since 1 July heating degree days 1512 1947  
Cooling Degree Days 14 6  
Month to date cooling degree days 156 106  
Year to date cooling degree days 309 159  
Growing Degree Days 28 (Base 50)    
Moisture  
Dew Point 67 °F    
Average Humidity 72    
Maximum Humidity 97    
Minimum Humidity 46    
Precipitation  
Precipitation 0.00 in 0.16 in 1.60 in (1905)
Month to date precipitation 4.57 4.55  
Year to date precipitation 29.14 19.28  
Snow  
Snow 0.00 in - 0.00 in ()
Month to date snowfall 0.0  
Since 1 July snowfall 0.0  
Snow Depth 0.00 in    
Sea Level Pressure  
Sea Level Pressure 30.05 in    
Wind  
Wind Speed 6 mph (SSE)    
Max Wind Speed 14 mph    
Max Gust Speed 18 mph    
Visibility 9 miles    
Events      
T = Trace of Precipitation, MM = Missing Value Source: NWS Daily Summary

Daily Weather History Graph

Daily Weather History Graph

Search for Another Location

Airport:

Trip Planner

Search our weather history database for the weather conditions in past years. The results will help you decide how hot, cold, wet, or windy it might be!

Date:

Astronomy

Apr. 30, 2012 Rise Set
Actual Time 6:25 AM CDT 7:49 PM CDT
Civil Twilight 6:00 AM CDT 8:15 PM CDT
Nautical Twilight 5:29 AM CDT 8:45 PM CDT
Astronomical Twilight 4:57 AM CDT 9:18 PM CDT
Moon 2:09 PM CDT (4/30) 2:26 AM CDT (4/30)
Length of Visible Light 14h 15m
Length of Day
13h 23m
Waxing Gibbous, 64% of the Moon is Illuminated
Apr 30
Waxing Gibbous
May 5
Full
May 12
Last Quarter
May 20
New
May 28
First Quarter

Hourly Weather History & Observations

Time (CDT) Temp. Heat Index Dew Point Humidity Pressure Visibility Wind Dir Wind Speed Gust Speed Precip Events Conditions
12:53 AM 70.0 °F - 66.9 °F 90% 30.05 in 9.0 mi SSE 3.5 mph - N/A   Partly Cloudy
1:06 AM 69.8 °F - 66.2 °F 88% 30.04 in 9.0 mi SE 3.5 mph - N/A   Mostly Cloudy
1:53 AM 71.1 °F - 68.0 °F 90% 30.04 in 9.0 mi SSE 4.6 mph - N/A   Overcast
2:53 AM 69.1 °F - 66.9 °F 93% 30.02 in 7.0 mi SE 3.5 mph - N/A   Overcast
3:53 AM 70.0 °F - 68.0 °F 93% 30.02 in 6.0 mi SE 3.5 mph - N/A   Overcast
4:53 AM 71.1 °F - 69.1 °F 93% 30.03 in 6.0 mi Calm Calm - N/A   Overcast
5:53 AM 71.1 °F - 69.1 °F 93% 30.04 in 6.0 mi SE 5.8 mph - N/A   Overcast
6:53 AM 71.1 °F - 69.1 °F 93% 30.07 in 5.0 mi Calm Calm - N/A   Overcast
7:30 AM 71.6 °F - 69.8 °F 94% 30.07 in 4.0 mi SE 5.8 mph - N/A   Mostly Cloudy
7:53 AM 73.0 °F - 70.0 °F 90% 30.08 in 5.0 mi SE 5.8 mph - N/A   Partly Cloudy
8:19 AM 73.4 °F - 69.8 °F 88% 30.09 in 8.0 mi SE 8.1 mph - N/A   Scattered Clouds
8:28 AM 73.4 °F - 69.8 °F 88% 30.09 in 8.0 mi SE 5.8 mph - N/A   Mostly Cloudy
8:53 AM 73.9 °F - 70.0 °F 87% 30.11 in 8.0 mi SSE 5.8 mph - N/A   Mostly Cloudy
8:57 AM 73.4 °F - 69.8 °F 88% 30.10 in 8.0 mi SE 4.6 mph - N/A   Overcast
9:37 AM 77.0 °F - 69.8 °F 78% 30.10 in 9.0 mi SSE 6.9 mph - N/A   Mostly Cloudy
9:53 AM 75.9 °F - 69.1 °F 79% 30.11 in 10.0 mi SSE 6.9 mph - N/A   Mostly Cloudy
10:06 AM 75.2 °F - 66.2 °F 73% 30.10 in 10.0 mi South 4.6 mph - N/A   Mostly Cloudy
10:53 AM 80.1 °F 82.7 °F 68.0 °F 67% 30.11 in 10.0 mi Variable 3.5 mph - N/A   Partly Cloudy
11:53 AM 82.9 °F 85.4 °F 66.9 °F 58% 30.10 in 10.0 mi South 6.9 mph - N/A   Partly Cloudy
12:53 PM 84.0 °F 86.3 °F 66.0 °F 55% 30.08 in 10.0 mi South 6.9 mph - N/A   Unknown
1:05 PM 84.2 °F 86.6 °F 66.2 °F 55% 30.07 in 10.0 mi South 10.4 mph - N/A   Partly Cloudy
1:53 PM 84.9 °F 87.1 °F 66.0 °F 53% 30.06 in 10.0 mi SSE 10.4 mph - N/A   Partly Cloudy
2:53 PM 84.9 °F 86.1 °F 64.0 °F 49% 30.04 in 10.0 mi South 10.4 mph - N/A   Partly Cloudy
3:09 PM 87.8 °F 89.4 °F 64.4 °F 46% 30.02 in 10.0 mi South 8.1 mph - N/A   Partly Cloudy
3:53 PM 86.0 °F 87.6 °F 64.9 °F 49% 30.01 in 10.0 mi South 9.2 mph - N/A   Partly Cloudy
4:53 PM 87.1 °F 88.9 °F 64.9 °F 48% 29.99 in 10.0 mi South 12.7 mph - N/A   Partly Cloudy
5:53 PM 86.0 °F 87.6 °F 64.9 °F 49% 29.98 in 10.0 mi South 8.1 mph - N/A   Clear
6:53 PM 82.9 °F 84.6 °F 64.9 °F 54% 29.98 in 10.0 mi SSE 6.9 mph - N/A   Clear
7:53 PM 79.0 °F - 64.0 °F 60% 29.98 in 10.0 mi South 4.6 mph - N/A   Clear
8:53 PM 77.0 °F - 64.0 °F 64% 29.99 in 10.0 mi South 4.6 mph - N/A   Clear
9:53 PM 73.9 °F - 64.0 °F 71% 30.01 in 10.0 mi SSE 5.8 mph - N/A   Clear
10:53 PM 73.0 °F - 66.0 °F 79% 30.01 in 10.0 mi SSE 4.6 mph - N/A   Clear
11:53 PM 73.0 °F - 66.9 °F 81% 30.00 in 10.0 mi SSE 4.6 mph - N/A   Clear